Meteo pe oră la Aberdour

Astăzi, 5 August, Joi

Timp Temperatura Precipitaţii Vânt Presiune Umiditate
00:00 +12°C° 0 mm 2 m/s 745 mmHg 85%
01:00 +12°C° 0 mm 1 m/s 744 mmHg 86%
02:00 +12°C° 0 mm 1 m/s 744 mmHg 87%
03:00 +12°C° 0 mm 1 m/s 743 mmHg 88%
04:00 +13°C° 0 mm 1 m/s 743 mmHg 87%
05:00 +13°C° 0 mm 1 m/s 743 mmHg 87%
06:00 +13°C° 0 mm 1 m/s 742 mmHg 86%
07:00 +15°C° 0 mm 2 m/s 742 mmHg 80%
08:00 +17°C° 0 mm 3 m/s 742 mmHg 73%
09:00 +18°C° 0 mm 3 m/s 741 mmHg 66%
10:00 +19°C° 0.1 mm 4 m/s 741 mmHg 63%
11:00 +20°C° 0.1 mm 5 m/s 740 mmHg 60%
12:00 +20°C° 0.1 mm 6 m/s 740 mmHg 57%
13:00 +20°C° 0.4 mm 5 m/s 739 mmHg 61%
14:00 +19°C° 0.4 mm 5 m/s 739 mmHg 66%
15:00 +19°C° 0.4 mm 5 m/s 738 mmHg 71%
16:00 +17°C° 0.2 mm 5 m/s 738 mmHg 74%
17:00 +17°C° 0.2 mm 4 m/s 738 mmHg 77%
18:00 +17°C° 0.2 mm 4 m/s 737 mmHg 79%
19:00 +15°C° 0.1 mm 4 m/s 737 mmHg 81%
20:00 +15°C° 0.1 mm 4 m/s 737 mmHg 83%
21:00 +14°C° 0.1 mm 5 m/s 737 mmHg 85%
22:00 +14°C° 0.3 mm 5 m/s 736 mmHg 88%
23:00 +14°C° 0.3 mm 5 m/s 736 mmHg 90%

Mâine, 6 August, Vineri

Timp Temperatura Precipitaţii Vânt Presiune Umiditate
00:00 +14°C° 0.3 mm 5 m/s 736 mmHg 92%
01:00 +14°C° 0.8 mm 4 m/s 735 mmHg 93%
02:00 +14°C° 0.8 mm 4 m/s 735 mmHg 95%
03:00 +14°C° 0.8 mm 4 m/s 734 mmHg 96%
04:00 +14°C° 0.4 mm 3 m/s 734 mmHg 96%
05:00 +14°C° 0.4 mm 3 m/s 734 mmHg 96%
06:00 +15°C° 0.4 mm 2 m/s 734 mmHg 96%
07:00 +16°C° 0.2 mm 2 m/s 733 mmHg 94%
08:00 +16°C° 0.2 mm 3 m/s 733 mmHg 91%
09:00 +17°C° 0.2 mm 3 m/s 733 mmHg 89%
10:00 +18°C° 0.4 mm 3 m/s 733 mmHg 85%
11:00 +18°C° 0.4 mm 3 m/s 733 mmHg 81%
12:00 +19°C° 0.4 mm 3 m/s 733 mmHg 77%
13:00 +19°C° 1.1 mm 3 m/s 732 mmHg 79%
14:00 +19°C° 1.1 mm 3 m/s 732 mmHg 81%
15:00 +18°C° 1.1 mm 3 m/s 732 mmHg 83%
16:00 +18°C° 0.7 mm 3 m/s 732 mmHg 85%
17:00 +17°C° 0.7 mm 2 m/s 732 mmHg 87%
18:00 +17°C° 0.7 mm 2 m/s 732 mmHg 89%
19:00 +16°C° 0.2 mm 2 m/s 733 mmHg 90%
20:00 +16°C° 0.2 mm 2 m/s 733 mmHg 92%
21:00 +15°C° 0.2 mm 1 m/s 733 mmHg 94%
22:00 +15°C° 0 mm 1 m/s 733 mmHg 93%
23:00 +15°C° 0 mm 1 m/s 733 mmHg 93%

Poimâine, 7 August, Sâmbătă

Timp Temperatura Precipitaţii Vânt Presiune Umiditate
00:00 +14°C° 0 mm 1 m/s 733 mmHg 93%
01:00 +15°C° 0.1 mm 1 m/s 733 mmHg 93%
02:00 +15°C° 0.1 mm 1 m/s 733 mmHg 93%
03:00 +15°C° 0.1 mm 1 m/s 733 mmHg 93%
04:00 +15°C° 0.2 mm 1 m/s 733 mmHg 93%
05:00 +15°C° 0.2 mm 1 m/s 732 mmHg 94%
06:00 +15°C° 0.2 mm 1 m/s 732 mmHg 94%
07:00 +15°C° 0.2 mm 2 m/s 732 mmHg 93%
08:00 +15°C° 0.2 mm 2 m/s 733 mmHg 91%
09:00 +16°C° 0.2 mm 2 m/s 733 mmHg 90%
10:00 +16°C° 0.3 mm 2 m/s 733 mmHg 88%
11:00 +16°C° 0.3 mm 2 m/s 733 mmHg 86%
12:00 +17°C° 0.3 mm 2 m/s 733 mmHg 84%
13:00 +17°C° 0.5 mm 2 m/s 733 mmHg 85%
14:00 +17°C° 0.5 mm 2 m/s 733 mmHg 85%
15:00 +17°C° 0.5 mm 2 m/s 733 mmHg 86%
16:00 +16°C° 0.4 mm 2 m/s 733 mmHg 88%
17:00 +16°C° 0.4 mm 2 m/s 733 mmHg 89%
18:00 +16°C° 0.4 mm 1 m/s 733 mmHg 91%
19:00 +15°C° 0.1 mm 1 m/s 733 mmHg 92%
20:00 +15°C° 0.1 mm 1 m/s 734 mmHg 94%
21:00 +15°C° 0.1 mm 1 m/s 734 mmHg 95%
22:00 +14°C° 0 mm 1 m/s 734 mmHg 95%
23:00 +14°C° 0 mm 1 m/s 734 mmHg 95%

8 August, Duminică

Timp Temperatura Precipitaţii Vânt Presiune Umiditate
00:00 +14°C° 0 mm 1 m/s 734 mmHg 95%
01:00 +14°C° 0 mm 2 m/s 734 mmHg 95%
02:00 +13°C° 0 mm 2 m/s 734 mmHg 95%
03:00 +13°C° 0 mm 2 m/s 734 mmHg 95%
04:00 +13°C° 0 mm 2 m/s 734 mmHg 95%
05:00 +14°C° 0 mm 2 m/s 734 mmHg 95%
06:00 +14°C° 0 mm 2 m/s 734 mmHg 95%
07:00 +15°C° 0 mm 2 m/s 735 mmHg 90%
08:00 +16°C° 0 mm 3 m/s 735 mmHg 86%
09:00 +17°C° 0 mm 3 m/s 735 mmHg 82%
10:00 +18°C° 0.3 mm 4 m/s 735 mmHg 79%
11:00 +19°C° 0.3 mm 4 m/s 736 mmHg 75%
12:00 +20°C° 0.3 mm 4 m/s 736 mmHg 72%
13:00 +20°C° 0.3 mm 5 m/s 736 mmHg 72%
14:00 +20°C° 0.3 mm 5 m/s 736 mmHg 72%
15:00 +20°C° 0.3 mm 6 m/s 737 mmHg 72%
16:00 +19°C° 0.1 mm 6 m/s 737 mmHg 74%
17:00 +19°C° 0.1 mm 6 m/s 738 mmHg 76%
18:00 +19°C° 0.1 mm 6 m/s 738 mmHg 78%
19:00 +16°C° 0 mm 6 m/s 739 mmHg 81%
20:00 +15°C° 0 mm 6 m/s 739 mmHg 85%
21:00 +14°C° 0 mm 6 m/s 740 mmHg 88%
22:00 +14°C° 0 mm 6 m/s 741 mmHg 89%
23:00 +13°C° 0 mm 6 m/s 741 mmHg 89%

9 August, Luni

Timp Temperatura Precipitaţii Vânt Presiune Umiditate
00:00 +13°C° 0 mm 5 m/s 742 mmHg 90%
01:00 +13°C° 0 mm 5 m/s 742 mmHg 89%
02:00 +14°C° 0 mm 5 m/s 742 mmHg 88%
03:00 +14°C° 0 mm 5 m/s 743 mmHg 88%
04:00 +14°C° 0 mm 6 m/s 743 mmHg 88%
05:00 +13°C° 0 mm 6 m/s 744 mmHg 88%
06:00 +13°C° 0 mm 6 m/s 744 mmHg 88%
07:00 +14°C° 0 mm 6 m/s 745 mmHg 83%
08:00 +15°C° 0 mm 6 m/s 745 mmHg 78%
09:00 +15°C° 0 mm 6 m/s 746 mmHg 73%
10:00 +16°C° 0 mm 6 m/s 746 mmHg 71%
11:00 +16°C° 0 mm 6 m/s 746 mmHg 70%
12:00 +16°C° 0 mm 6 m/s 747 mmHg 69%
13:00 +16°C° 0 mm 6 m/s 747 mmHg 74%
14:00 +16°C° 0 mm 5 m/s 747 mmHg 79%
15:00 +15°C° 0 mm 5 m/s 748 mmHg 83%
16:00 +15°C° 0 mm 5 m/s 748 mmHg 85%
17:00 +15°C° 0 mm 5 m/s 748 mmHg 87%
18:00 +15°C° 0 mm 5 m/s 748 mmHg 89%
19:00 +15°C° 0 mm 5 m/s 748 mmHg 89%
20:00 +15°C° 0 mm 5 m/s 748 mmHg 90%
21:00 +15°C° 0 mm 4 m/s 749 mmHg 91%
22:00 +15°C° 0.1 mm 4 m/s 749 mmHg 91%
23:00 +15°C° 0.1 mm 4 m/s 749 mmHg 92%

10 August, Marţi

Timp Temperatura Precipitaţii Vânt Presiune Umiditate
00:00 +15°C° 0.1 mm 4 m/s 749 mmHg 92%
01:00 +15°C° 0 mm 4 m/s 749 mmHg 92%
02:00 +15°C° 0 mm 4 m/s 749 mmHg 92%
03:00 +16°C° 0 mm 3 m/s 749 mmHg 92%
04:00 +16°C° 0.1 mm 3 m/s 749 mmHg 92%
05:00 +16°C° 0.1 mm 3 m/s 749 mmHg 92%
06:00 +16°C° 0.1 mm 3 m/s 749 mmHg 92%
07:00 +17°C° 0.1 mm 3 m/s 749 mmHg 91%
08:00 +17°C° 0.1 mm 4 m/s 749 mmHg 90%
09:00 +17°C° 0.1 mm 4 m/s 749 mmHg 89%
10:00 +18°C° 0 mm 4 m/s 749 mmHg 87%
11:00 +18°C° 0 mm 4 m/s 749 mmHg 85%
12:00 +19°C° 0 mm 5 m/s 749 mmHg 83%
13:00 +19°C° 0 mm 5 m/s 749 mmHg 81%
14:00 +20°C° 0 mm 5 m/s 748 mmHg 79%
15:00 +20°C° 0 mm 5 m/s 748 mmHg 77%
16:00 +19°C° 0 mm 5 m/s 748 mmHg 78%
17:00 +19°C° 0 mm 4 m/s 748 mmHg 79%
18:00 +18°C° 0 mm 4 m/s 748 mmHg 80%
19:00 +18°C° 0.3 mm 4 m/s 747 mmHg 83%
20:00 +17°C° 0.3 mm 4 m/s 747 mmHg 87%
21:00 +17°C° 0.3 mm 4 m/s 747 mmHg 90%
22:00 +17°C° 1.1 mm 4 m/s 747 mmHg 92%
23:00 +15°C° 1.1 mm 4 m/s 747 mmHg 93%
Arată mai mult

Formular de consimțământ

Meteoprog și furnizorii noștri de servicii pot stoca și accesa date personale, precum cookies, identificatori de dispozitiv sau alte tehnologii similare pe dispozitivul dumneavoastră și procesa astfel de date pentru a personaliza conținutul și reclamele, dar și pentru a oferi caracteristici de social media și pentru a analiza traficul.

  • Stocarea și/sau accesarea informațiilor pe dispozitivul dumneavoastră

    Cookies, identificatori de dispozitiv sau alte informații pot fi stocate sau accesate pe dispozitiv în scopurile indicate mai sus.

  • Reclame și conținut personalizat, evaluarea reclamelor și a conținutului, informații despre audiențe și dezvoltarea produselor

    Reclamele și conținutul pot fi personalizate pe baza unui profil. Pot fi adăugate date suplimentare pentru a personaliza mai bine reclamele și conținutul. Performanța reclamelor și conținutului poate fi măsurată. Pot fi obținute informații despre utilizatorii care au văzut reclamele și conținutul. Aceste date pot fi utilizate pentru a dezvolta sau îmbunătăți experiența utilizatorilor, sistemele și software-ul.

Dând clic pe ‘Sunt de acord’, permiteți utilizarea cookie-urilor menționate, a identificatorilor de dispozitiv, balizelor web sau altor tehnologii similare. Setările pot fi modificate din browser-ul dispozitivului dumneavoastră.

În anumite scopuri, interesele legitime pot prima asupra consimțământului. Puteți citi mai multe informații în acest sens în Politica privind Confidențialitatea Datelor și Cookie.